| time (UTC) | temp F | wind direction | speed MPH | gust MPH | rain 1hr in | rain 24hr in | rain mn in | humidity % | barometer mb |
| 20260509224516 | 100 | 293 | 9.0 | 15.0 | 0.00 | 0.00 | 0.00 | 8 | 1008.1 |
| 20260509223536 | 99 | 293 | 3.0 | 10.0 | 0.00 | 0.00 | 0.00 | 8 | 1008.2 |
| 20260509222516 | 98 | 293 | 1.0 | 5.0 | 0.00 | 0.00 | 0.00 | 8 | 1008.1 |
| 20260509221516 | 99 | 270 | 6.0 | 11.0 | 0.00 | 0.00 | 0.00 | 8 | 1008.4 |
| 20260509220519 | 99 | 338 | 6.0 | 14.0 | 0.00 | 0.00 | 0.00 | 8 | 1008.5 |
| 20260509215519 | 99 | 293 | 6.0 | 13.0 | 0.00 | 0.00 | 0.00 | 7 | 1008.7 |
| 20260509214536 | 98 | 270 | 3.0 | 9.0 | 0.00 | 0.00 | 0.00 | 8 | 1008.8 |
| 20260509213516 | 99 | 293 | 5.0 | 11.0 | 0.00 | 0.00 | 0.00 | 8 | 1009.1 |
| 20260509212516 | 98 | 248 | 5.0 | 11.0 | 0.00 | 0.00 | 0.00 | 8 | 1009.2 |
| 20260509211517 | 99 | 270 | 7.0 | 11.0 | 0.00 | 0.00 | 0.00 | 8 | 1009.4 |
| 20260509210516 | 98 | 270 | 4.0 | 9.0 | 0.00 | 0.00 | 0.00 | 9 | 1009.4 |
| 20260509205536 | 98 | 293 | 5.0 | 11.0 | 0.00 | 0.00 | 0.00 | 9 | 1009.7 |
| 20260509204516 | 98 | 338 | 5.0 | 11.0 | 0.00 | 0.00 | 0.00 | 9 | 1009.8 |
| 20260509203516 | 98 | 293 | 6.0 | 11.0 | 0.00 | 0.00 | 0.00 | 9 | 1010.0 |
| 20260509202518 | 97 | 270 | 4.0 | 10.0 | 0.00 | 0.00 | 0.00 | 9 | 1010.2 |
| 20260509201516 | 97 | 270 | 6.0 | 10.0 | 0.00 | 0.00 | 0.00 | 9 | 1010.3 |
| 20260509200536 | 97 | 270 | 7.0 | 15.0 | 0.00 | 0.00 | 0.00 | 10 | 1010.5 |
| 20260509195516 | 96 | 270 | 5.0 | 11.0 | 0.00 | 0.00 | 0.00 | 10 | 1010.5 |
| 20260509194515 | 96 | 293 | 7.0 | 16.0 | 0.00 | 0.00 | 0.00 | 9 | 1010.6 |
| 20260509193516 | 97 | 270 | 5.0 | 10.0 | 0.00 | 0.00 | 0.00 | 10 | 1010.8 |
| 20260509192515 | 95 | 270 | 4.0 | 12.0 | 0.00 | 0.00 | 0.00 | 10 | 1010.9 |
| 20260509191536 | 95 | 270 | 5.0 | 12.0 | 0.00 | 0.00 | 0.00 | 10 | 1011.0 |
| 20260509190516 | 95 | 270 | 3.0 | 10.0 | 0.00 | 0.00 | 0.00 | 10 | 1011.0 |
| 20260509185515 | 95 | 338 | 4.0 | 9.0 | 0.00 | 0.00 | 0.00 | 10 | 1011.2 |
| 20260509184516 | 95 | 270 | 3.0 | 9.0 | 0.00 | 0.00 | 0.00 | 10 | 1011.3 |
| 20260509183518 | 95 | 270 | 5.0 | 10.0 | 0.00 | 0.00 | 0.00 | 10 | 1011.4 |
| 20260509182536 | 94 | 270 | 2.0 | 7.0 | 0.00 | 0.00 | 0.00 | 11 | 1011.5 |
| 20260509181515 | 94 | 338 | 1.0 | 4.0 | 0.00 | 0.00 | 0.00 | 11 | 1011.7 |
| 20260509180515 | 93 | 225 | 4.0 | 9.0 | 0.00 | 0.00 | 0.00 | 11 | 1011.7 |
| 20260509175516 | 92 | 270 | 4.0 | 9.0 | 0.00 | 0.00 | 0.00 | 12 | 1011.8 |
| 20260509174515 | 92 | 248 | 5.0 | 9.0 | 0.00 | 0.00 | 0.00 | 11 | 1011.8 |
| 20260509173536 | 93 | 248 | 2.0 | 4.0 | 0.00 | 0.00 | 0.00 | 11 | 1012.0 |
| 20260509172515 | 92 | 135 | 2.0 | 5.0 | 0.00 | 0.00 | 0.00 | 12 | 1012.0 |
| 20260509171515 | 90 | 270 | 4.0 | 9.0 | 0.00 | 0.00 | 0.00 | 12 | 1011.9 |
| 20260509170516 | 90 | 270 | 2.0 | 5.0 | 0.00 | 0.00 | 0.00 | 13 | 1012.0 |
| 20260509165515 | 90 | 270 | 3.0 | 8.0 | 0.00 | 0.00 | 0.00 | 13 | 1012.0 |
| 20260509164536 | 90 | 248 | 3.0 | 9.0 | 0.00 | 0.00 | 0.00 | 13 | 1011.9 |
| 20260509163517 | 90 | 0.0 | 2.0 | 0.00 | 0.00 | 0.00 | 14 | 1012.0 | |
| 20260509162515 | 89 | 203 | 2.0 | 5.0 | 0.00 | 0.00 | 0.00 | 14 | 1012.0 |
| 20260509161516 | 88 | 135 | 2.0 | 5.0 | 0.00 | 0.00 | 0.00 | 15 | 1012.0 |
| 20260509160515 | 88 | 225 | 3.0 | 7.0 | 0.00 | 0.00 | 0.00 | 14 | 1012.1 |
| 20260509155536 | 88 | 180 | 2.0 | 5.0 | 0.00 | 0.00 | 0.00 | 15 | 1012.1 |
| 20260509154515 | 88 | 225 | 2.0 | 4.0 | 0.00 | 0.00 | 0.00 | 15 | 1012.1 |
| 20260509153515 | 87 | 0.0 | 1.0 | 0.00 | 0.00 | 0.00 | 15 | 1012.0 | |
| 20260509152516 | 86 | 0.0 | 2.0 | 0.00 | 0.00 | 0.00 | 15 | 1011.9 | |
| 20260509151515 | 86 | 135 | 2.0 | 5.0 | 0.00 | 0.00 | 0.00 | 16 | 1012.1 |
| 20260509150536 | 85 | 158 | 3.0 | 5.0 | 0.00 | 0.00 | 0.00 | 18 | 1011.9 |
| 20260509145515 | 83 | 135 | 3.0 | 6.0 | 0.00 | 0.00 | 0.00 | 19 | 1011.9 |
| 20260509144515 | 82 | 135 | 3.0 | 6.0 | 0.00 | 0.00 | 0.00 | 20 | 1011.7 |
| 20260509143516 | 81 | 158 | 3.0 | 5.0 | 0.00 | 0.00 | 0.00 | 20 | 1011.6 |
| 20260509142515 | 80 | 135 | 3.0 | 5.0 | 0.00 | 0.00 | 0.00 | 21 | 1011.5 |
| 20260509141536 | 79 | 135 | 3.0 | 6.0 | 0.00 | 0.00 | 0.00 | 22 | 1011.4 |
| 20260509140515 | 78 | 135 | 3.0 | 6.0 | 0.00 | 0.00 | 0.00 | 22 | 1011.2 |
| 20260509135515 | 77 | 135 | 3.0 | 6.0 | 0.00 | 0.00 | 0.00 | 23 | 1011.1 |
| 20260509134516 | 76 | 135 | 3.0 | 5.0 | 0.00 | 0.00 | 0.00 | 24 | 1010.9 |
| 20260509133515 | 74 | 135 | 2.0 | 4.0 | 0.00 | 0.00 | 0.00 | 25 | 1010.6 |
| 20260509132536 | 73 | 135 | 2.0 | 4.0 | 0.00 | 0.00 | 0.00 | 25 | 1010.5 |
| 20260509131515 | 0 | 0.0 | 0.0 | 0.00 | 0.00 | 0.00 | |||
| 20260509130544 | 0 | 0.0 | 0.0 | 0.00 | 0.00 | 0.00 | |||
| 20260509130036 | 0 | 0.0 | 0.0 | 0.00 | 0.00 | 0.00 | |||
| 20260509125015 | 0 | 0.0 | 0.0 | 0.00 | 0.00 | 0.00 | |||
| 20260509124102 | 0 | 0.0 | 0.0 | 0.00 | 0.00 | 0.00 | |||
| 20260509123535 | 0 | 0.0 | 0.0 | 0.00 | 0.00 | 0.00 | |||
| 20260509122515 | 0 | 0.0 | 0.0 | 0.00 | 0.00 | 0.00 | |||
| 20260509121546 | 0 | 0.0 | 0.0 | 0.00 | 0.00 | 0.00 | |||
| 20260509121038 | 0 | 0.0 | 0.0 | 0.00 | 0.00 | 0.00 | |||
| 20260509120035 | 0 | 0.0 | 0.0 | 0.00 | 0.00 | 0.00 | |||
| 20260509115044 | 0 | 0.0 | 0.0 | 0.00 | 0.00 | 0.00 | |||
| 20260509114534 | 0 | 0.0 | 0.0 | 0.00 | 0.00 | 0.00 | |||
| 20260509113516 | 0 | 0.0 | 0.0 | 0.00 | 0.00 | 0.00 | |||
| 20260509112548 | 0 | 0.0 | 0.0 | 0.00 | 0.00 | 0.00 | |||
| 20260509112056 | 0 | 0.0 | 0.0 | 0.00 | 0.00 | 0.00 | |||
| 20260509111015 | 0 | 0.0 | 0.0 | 0.00 | 0.00 | 0.00 | |||
| 20260509110042 | 0 | 0.0 | 0.0 | 0.00 | 0.00 | 0.00 | |||
| 20260509105534 | 0 | 0.0 | 0.0 | 0.00 | 0.00 | 0.00 | |||
| 20260509104517 | 0 | 0.0 | 0.0 | 0.00 | 0.00 | 0.00 | |||
| 20260509103605 | 0 | 0.0 | 0.0 | 0.00 | 0.00 | 0.00 | |||
| 20260509103037 | 0 | 0.0 | 0.0 | 0.00 | 0.00 | 0.00 | |||
| 20260509102017 | 0 | 0.0 | 0.0 | 0.00 | 0.00 | 0.00 | |||
| 20260509101112 | 0 | 0.0 | 0.0 | 0.00 | 0.00 | 0.00 | |||
| 20260509100604 | 69 | 113 | 1.0 | 2.0 | 0.00 | 0.00 | 0.00 | 23 | 1009.4 |
| 20260509100040 | 69 | 0.0 | 2.0 | 0.00 | 0.00 | 0.00 | 23 | 1009.4 | |
| 20260509095017 | 69 | 0.0 | 1.0 | 0.00 | 0.00 | 0.00 | 23 | 1009.3 | |
| 20260509094018 | 69 | 0.0 | 1.0 | 0.00 | 0.00 | 0.00 | 23 | 1009.4 | |
| 20260509093017 | 69 | 0.0 | 1.0 | 0.00 | 0.00 | 0.00 | 23 | 1009.3 | |
| 20260509092017 | 70 | 0.0 | 1.0 | 0.00 | 0.00 | 0.00 | 22 | 1009.3 | |
| 20260509091037 | 70 | 0.0 | 0.0 | 0.00 | 0.00 | 0.00 | 22 | 1009.3 | |
| 20260509090021 | 71 | 0.0 | 1.0 | 0.00 | 0.00 | 0.00 | 22 | 1009.4 | |
| 20260509085017 | 71 | 0.0 | 1.0 | 0.00 | 0.00 | 0.00 | 22 | 1009.3 | |
| 20260509084017 | 71 | 0.0 | 0.0 | 0.00 | 0.00 | 0.00 | 22 | 1009.4 | |
| 20260509083017 | 71 | 0.0 | 1.0 | 0.00 | 0.00 | 0.00 | 22 | 1009.4 | |
| 20260509082037 | 71 | 0.0 | 0.0 | 0.00 | 0.00 | 0.00 | 22 | 1009.3 | |
| 20260509081017 | 72 | 0.0 | 0.0 | 0.00 | 0.00 | 0.00 | 22 | 1009.4 | |
| 20260509080017 | 72 | 0.0 | 0.0 | 0.00 | 0.00 | 0.00 | 21 | 1009.4 | |
| 20260509075017 | 73 | 0.0 | 1.0 | 0.00 | 0.00 | 0.00 | 21 | 1009.6 | |
| 20260509074017 | 74 | 0.0 | 1.0 | 0.00 | 0.00 | 0.00 | 21 | 1009.6 | |
| 20260509073037 | 74 | 0.0 | 0.0 | 0.00 | 0.00 | 0.00 | 20 | 1009.6 | |
| 20260509072017 | 75 | 0.0 | 1.0 | 0.00 | 0.00 | 0.00 | 20 | 1009.6 | |
| 20260509071018 | 75 | 0.0 | 0.0 | 0.00 | 0.00 | 0.00 | 20 | 1009.6 | |
| 20260509070112 | 76 | 0.0 | 1.0 | 0.00 | 0.00 | 0.00 | 19 | 1009.6 | |
| 20260509065016 | 76 | 135 | 1.0 | 3.0 | 0.00 | 0.00 | 0.00 | 19 | 1009.6 |
| 20260509064037 | 77 | 135 | 2.0 | 4.0 | 0.00 | 0.00 | 0.00 | 19 | 1009.7 |
| 20260509063016 | 77 | 0.0 | 0.0 | 0.00 | 0.00 | 0.00 | 19 | 1009.6 | |
| 20260509062016 | 78 | 0.0 | 0.0 | 0.00 | 0.00 | 0.00 | 19 | 1009.6 | |
| 20260509061016 | 78 | 0.0 | 0.0 | 0.00 | 0.00 | 0.00 | 18 | 1009.6 | |
| 20260509060016 | 79 | 0.0 | 0.0 | 0.00 | 0.00 | 0.00 | 18 | 1009.6 | |
| 20260509055038 | 79 | 0.0 | 1.0 | 0.00 | 0.00 | 0.00 | 18 | 1009.6 | |
| 20260509054017 | 79 | 0.0 | 0.0 | 0.00 | 0.00 | 0.00 | 18 | 1009.6 | |
| 20260509053017 | 79 | 0.0 | 0.0 | 0.00 | 0.00 | 0.00 | 18 | 1009.6 | |
| 20260509052019 | 80 | 0.0 | 0.0 | 0.00 | 0.00 | 0.00 | 17 | 1009.6 | |
| 20260509051018 | 80 | 0.0 | 0.0 | 0.00 | 0.00 | 0.00 | 17 | 1009.6 | |
| 20260509050037 | 80 | 0.0 | 2.0 | 0.00 | 0.00 | 0.00 | 17 | 1009.5 | |
| 20260509045016 | 80 | 158 | 1.0 | 2.0 | 0.00 | 0.00 | 0.00 | 16 | 1009.5 |
| 20260509044017 | 81 | 158 | 1.0 | 2.0 | 0.00 | 0.00 | 0.00 | 16 | 1009.5 |
| 20260509043017 | 81 | 0.0 | 3.0 | 0.00 | 0.00 | 0.00 | 16 | 1009.4 | |
| 20260509042016 | 81 | 0.0 | 2.0 | 0.00 | 0.00 | 0.00 | 16 | 1009.3 | |
| 20260509041037 | 81 | 0.0 | 0.0 | 0.00 | 0.00 | 0.00 | 16 | 1009.2 | |
| 20260509040016 | 81 | 0.0 | 0.0 | 0.00 | 0.00 | 0.00 | 16 | 1009.0 | |
| 20260509035016 | 82 | 0.0 | 0.0 | 0.00 | 0.00 | 0.00 | 16 | 1008.8 | |
| 20260509034016 | 82 | 0.0 | 0.0 | 0.00 | 0.00 | 0.00 | 15 | 1008.6 | |
| 20260509033017 | 83 | 0.0 | 0.0 | 0.00 | 0.00 | 0.00 | 15 | 1008.8 | |
| 20260509032036 | 83 | 0.0 | 0.0 | 0.00 | 0.00 | 0.00 | 14 | 1008.7 | |
| 20260509031017 | 85 | 0.0 | 1.0 | 0.00 | 0.00 | 0.00 | 14 | 1008.8 | |
| 20260509030019 | 86 | 0.0 | 0.0 | 0.00 | 0.00 | 0.00 | 13 | 1008.7 | |
| 20260509025016 | 87 | 0.0 | 1.0 | 0.00 | 0.00 | 0.00 | 12 | 1008.7 | |
| 20260509024017 | 88 | 0.0 | 1.0 | 0.00 | 0.00 | 0.00 | 12 | 1008.6 | |
| 20260509023036 | 89 | 270 | 1.0 | 3.0 | 0.00 | 0.00 | 0.00 | 12 | 1008.6 |
| 20260509022016 | 90 | 270 | 2.0 | 4.0 | 0.00 | 0.00 | 0.00 | 11 | 1008.5 |
| 20260509021016 | 92 | 293 | 3.0 | 5.0 | 0.00 | 0.00 | 0.00 | 11 | 1008.5 |
| 20260509020021 | 92 | 270 | 5.0 | 8.0 | 0.00 | 0.00 | 0.00 | 10 | 1008.5 |
| 20260509015019 | 93 | 270 | 6.0 | 11.0 | 0.00 | 0.00 | 0.00 | 10 | 1008.6 |
| 20260509014037 | 94 | 270 | 6.0 | 10.0 | 0.00 | 0.00 | 0.00 | 10 | 1008.5 |
| 20260509013016 | 94 | 270 | 4.0 | 10.0 | 0.00 | 0.00 | 0.00 | 10 | 1008.5 |
| 20260509012016 | 94 | 293 | 6.0 | 11.0 | 0.00 | 0.00 | 0.00 | 10 | 1008.5 |
| 20260509011017 | 95 | 270 | 6.0 | 13.0 | 0.00 | 0.00 | 0.00 | 10 | 1008.6 |
| 20260509010016 | 95 | 270 | 5.0 | 9.0 | 0.00 | 0.00 | 0.00 | 10 | 1008.6 |
| 20260509005036 | 95 | 270 | 5.0 | 10.0 | 0.00 | 0.00 | 0.00 | 10 | 1008.7 |
| 20260509004016 | 95 | 270 | 8.0 | 15.0 | 0.00 | 0.00 | 0.00 | 10 | 1008.7 |
| 20260509003017 | 95 | 270 | 8.0 | 13.0 | 0.00 | 0.00 | 0.00 | 10 | 1008.7 |
| 20260509002017 | 95 | 338 | 3.0 | 8.0 | 0.00 | 0.00 | 0.00 | 10 | 1008.8 |
| 20260509001017 | 95 | 270 | 4.0 | 9.0 | 0.00 | 0.00 | 0.00 | 10 | 1008.9 |
| 20260509000037 | 96 | 270 | 7.0 | 12.0 | 0.00 | 0.00 | 0.00 | 10 | 1008.9 |
| 20260508235018 | 95 | 270 | 6.0 | 15.0 | 0.00 | 0.00 | 0.00 | 10 | 1009.1 |
| 20260508234016 | 95 | 270 | 9.0 | 15.0 | 0.00 | 0.00 | 0.00 | 10 | 1009.1 |
| 20260508233017 | 96 | 293 | 4.0 | 8.0 | 0.00 | 0.00 | 0.00 | 10 | 1009.2 |
| 20260508232016 | 96 | 293 | 7.0 | 14.0 | 0.00 | 0.00 | 0.00 | 10 | 1009.3 |
| 20260508231036 | 95 | 270 | 7.0 | 14.0 | 0.00 | 0.00 | 0.00 | 9 | 1009.4 |
| 20260508230018 | 95 | 293 | 6.0 | 14.0 | 0.00 | 0.00 | 0.00 | 10 | 1009.4 |
| 20260508225018 | 95 | 270 | 8.0 | 14.0 | 0.00 | 0.00 | 0.00 | 10 | 1009.6 |